Location: Schommer Observatory
(40.5200°N, 74.4500°W)
Time: 05:30:02
(UTC-04:00)

Envisat - Pass Details

Date: 16 October 2017
Orbit: 764 x 766 km, 98.2° (Epoch: 23 October)

Event Time Altitude Azimuth Distance (km) Brightness Sun altitude
Exits shadow 19:06:03 11° 62° (ENE) 2,260 4.9 -10.3°
Maximum altitude 19:06:22 11° 59° (ENE) 2,257 4.9 -10.4°
Drops below altitude 10° 19:07:30 10° 46° (NE) 2,308 5.0 -10.6°
Sets 19:11:52 0° 10° (N) 3,240 6.1 -11.4°
